Regional Weather Roundup
Issued by NWS Newport/Morehead, NC

Home | Current Version | Previous Version | Text Only | Print | Product List | Glossary On
Versions: 1 2 3 4 5 6 7 8 9 10 11 12 13 14 15 16 17 18 19 20 21 22 23 24 25 26 27 28 29 30 31 32 33 34 35 36 37 38 39 40 41 42 43 44 45 46 47 48 49 50
000
ASUS42 KMHX 160410
RWRMHX
WEATHER ROUNDUP FOR EASTERN NORTH CAROLINA
NATIONAL WEATHER SERVICE NEWPORT/MOREHEAD CITY NC
1200 AM EDT TUE SEP 16 2014

NOTE: "FAIR" INDICATES FEW OR NO CLOUDS BELOW 12,000 FEET
WITH NO SIGNIFICANT WEATHER AND/OR OBSTRUCTIONS TO VISIBILITY

NCZ015>017-031-032-045>047-102-103-160500-
NORTH COAST

CITY           SKY/WX    TMP DP  RH WIND       PRES   REMARKS
EDENTON        CLOUDY    70  63  76 S8        30.12F
ELIZABETH CITY CLOUDY    69  63  81 CALM      30.11F
KITTY HAWK     CLOUDY    69  61  73 CALM      30.11F
MANTEO         CLOUDY    68  63  84 CALM      30.12F

$$

NCZ045>047-081-094-103-104-160500-
CENTRAL COAST

CITY           SKY/WX    TMP DP  RH WIND       PRES   REMARKS
FRISCO         MOCLDY    67  63  87 NE3       30.12F
SWANQUARTER      N/A     70 N/A N/A NE1       30.09S

$$

NCZ095-097-098-100-101-160500-
SOUTHERN COAST

CITY           SKY/WX    TMP DP  RH WIND       PRES   REMARKS
BEAUFORT       CLOUDY    73  66  78 NE3       30.12F
CEDAR ISLAND     N/A     73 N/A N/A E3        30.18S
JACKSONVILLE   MOCLDY    72  69  90 CALM      30.12F
NEWPORT        NOT AVBL
PINEY ISLAND   CLOUDY    74  68  81 S3        30.12F
WILMINGTON     CLOUDY    72  69  90 NW3       30.13F


$$

NCZ011>013-027>030-043-044-078>080-089-090>093-098-160500-
COASTAL PLAIN

CITY           SKY/WX    TMP DP  RH WIND       PRES   REMARKS
AHOSKIE        CLOUDY    67  65  93 CALM      30.11F
CLINTON        MOCLDY    69  69  98 CALM      30.12F
ELIZABETHTOWN  MOCLDY    72  71  97 CALM      30.12F
GOLDSBORO      PTCLDY    69  68  98 CALM      30.10F
GREENVILLE     CLOUDY    70  68  94 CALM      30.13F
HAVELOCK       CLOUDY    72  67  84 SE3       30.14F
KENANSVILLE    CLOUDY    70  66  88 CALM      30.13S
KINSTON        PTCLDY    68  67  96 CALM      30.13S
NEW BERN       CLOUDY    73  69  87 CALM      30.13F
RICHLANDS      CLOUDY    72  66  83 CALM      30.12F
ROANOKE RAPIDS NOT AVBL
ROCKY MOUNT    MOCLDY    68  66  93 CALM      30.11F
WASHINGTON     CLOUDY    70  66  89 E3        30.12F
WHITEVILLE     CLOUDY    71  69  95 CALM      30.12F FOG

$$

AMZ130-135-150-152-154-156-158-170-250-252-270-ANZ085-086-088-633-658-670-160500-
MARINE OBSERVATIONS

STATION/POSITION TIME  TEMP    WIND        PRES    WAVE   SWELL
                       AIR SEA DIR/SP/G            HT/PER HT/PER
                 (UTC) (F)     (DEG/KT/KT) (MB)    (FT/S) (FT/S)
CHESAPEAKE LIGHT 0300   70     180/  8/  9 1020.8
BUOY 44014       0400   71 79  160/  2/  4 1019.5    2/ 8   2/ 8
DUCK             0400   71                 1019.2
2E DUCK          0400                        N/A     2/ 8
OREGON INLET     0400   72                 1019.8
BUOY 44095       0400      76                N/A     3/ 7
20E OREGON INLET NOT AVBL
HATTERAS CG      0400   72                 1020.5
DIAMOND BUOY     0400   73     340/  8/ 10 1019.9    3/ 8   3/ 8
CAPE LOOKOUT     0300   73      30/  6/  7 1020.4
BEAUFORT LAB     0400   73                 1019.8
30 SE NEW RIVER  0300   77 82   30/  4/  6 1020.5
5 SE WRIGHTSVILL 0300   73 81   10/  8/  8   N/A
BUOY 41002       0332   80 83  290/  6/  8 1019.9    3/ 5   3/ 5
BUOY 41004       0400   80 83  220/  4/  6 1019.3    2/ 6   2/ 6

$$


USA.gov is the U.S. government's official web portal to all federal, state and local government web resources and services.